星链-3857 (STARLINK-3857 )

导读 | 豆包AI

STARLINK-3857是美国SpaceX公司星链互联网星座的成员,于2022年5月6日发射。作为低轨宽带通信卫星,它采用平板设计与霍尔推进技术,依托相控阵天线、激光星间链路实现高速通信,为全球提供低时延宽带互联网服务。卫星具备自主避撞能力,寿命末期将主动离轨再入大气层销毁,减少空间碎片影响。

基本信息
目录编号:
52494
目录名称:
STARLINK-3857
国际标识:
2022-049AV
轨道中心:
EARTH
卫星名称:
星链-3857
卫星全名:
星链-3857 (STARLINK-3857 )
卫星状态:
在轨 (已飞行1408 天)
发射日期:
2022-05-06 UTC
国别 :
美国 (US)
星等 :
--
轨道信息
数据来源 国际轨道数据 AOE轨道数据
星历时间 2026-03-14T21:53:23+0800
9小时前
查看轨道信息
2026-03-13T17:00:00+0800
1天前
查看轨道信息
半长轴 6917.887km 6917.887km
偏心率 0.0001209 0.0001451
轨道倾角 53.218° 53.217°
近地点辐角 87.290° 103.381°
升交点赤经 27.169° 32.573°
平近点角 272.823° 194.714°
近地点 538.913km 538.746km
远地点 540.587km 540.754km
周期 95.438分钟 95.438分钟
每日圈数 15.088379 15.088379
详细信息
固有亮度:
5
最大亮度:
2.5
卫星平台:
Starlink v1.5
覆盖范围:
全球
运营商:
太空探索技术公司
运营商所在国:
美国
制造商(研发单位):
太空探索技术公司
制造商所在国:
美国
使用方式:
暂无
卫星简介
星链(Starlink)计划是由太空探索技术公司(SpaceX)提出的一个巨型低轨卫星互联网星座项目,计划在2019年至2024年间在太空搭建由约1.2万颗卫星组成的“星链”网络,其中1584颗将部署在地球上空550千米处的近地轨道,并从2020年开始工作。该卫星仍在工作。
2D轨道图
3D轨道图
轨道高度分析图
轨道倾角分析图
轨道综合分析图
查看轨道综合分析图